Regional Weather Roundup
Issued by NWS Northern Indiana

Home | Current Version | Previous Version | Text Only | Print | Product List | Glossary On
Versions: 1 2 3 4 5 6 7 8 9 10 11 12 13 14 15 16 17 18 19 20 21 22 23 24 25 26 27 28 29 30 31 32 33 34 35 36 37 38 39 40 41 42 43 44 45 46 47 48 49 50
000
ASUS43 KIWX 252110
RWRIWX

KIWX WEATHER ROUNDUP
NATIONAL WEATHER SERVICE NORTHERN INDIANA
500 PM EDT TUE JUL 25 2017

NOTE: "FAIR" INDICATES FEW OR NO CLOUDS BELOW 12,000 FEET WITH NO
SIGNIFICANT WEATHER AND/OR OBSTRUCTIONS TO VISIBILITY.

* THESE STATIONS ARE NOT UNDER NWS QUALITY CONTROL. THEY ALSO MAY NOT
  REPORT WEATHER SUCH AS PRECIPITATION OR FOG.

INZ001>027-252200-
NORTHERN INDIANA

CITY           SKY/WX    TMP DP  RH WIND       PRES   REMARKS
GARY*          MOSUNNY   81  50  34 SE10      30.19S
VALPARAISO     SUNNY     80  57  45 SE5       30.20F
MICHIGAN CITY* SUNNY     79  54  41 S5        30.20F
LAPORTE*       SUNNY     78  57  49 SE7       30.21S
KNOX*          SUNNY     77  55  47 CALM      30.20S
SOUTH BEND     SUNNY     80  57  45 CALM      30.21S
ELKHART*       SUNNY     79  50  36 MISG      30.21S
GOSHEN         SUNNY     80  50  34 SE6       30.21F
MONTICELLO*    SUNNY     78  56  46 SE5       30.18S
LOGANSPORT*    SUNNY     77  55  47 E8        30.20S
ROCHESTER*     SUNNY     81  54  39 E10       30.20S
WARSAW*        SUNNY     77  54  44 E8        30.21S
AUBURN*        SUNNY     79  52  38 E7        30.22S
FORT WAYNE     MOSUNNY   78  58  49 E7        30.21F
HUNTINGTON*    SUNNY     76  57  52 E9        30.20S
PERU/GRISSOM   SUNNY     78  58  49 E6        30.18F
MARION*        SUNNY     77  57  50 E7        30.20F

$$
INZ028>050-252200-
CENTRAL INDIANA

CITY           SKY/WX    TMP DP  RH WIND       PRES   REMARKS
LAFAYETTE      SUNNY     79  61  53 SE6       30.16F
KOKOMO*        SUNNY     77  59  53 E7        30.19F
MUNCIE*        SUNNY     80  59  48 SE7       30.19F
INDIANAPOLIS   MOSUNNY   80  57  45 E12       30.16F

$$
MIZ043>046-050>051-056>058-064>065-071>073-077>080-252200-
SOUTHWEST LOWER MICHIGAN

CITY           SKY/WX    TMP DP  RH WIND       PRES   REMARKS
BATTLE CREEK   MOSUNNY   80  52  37 E9        30.21F
BENTON HARBOR  SUNNY     76  58  53 NW7       30.20F
COLDWATER*     SUNNY     77  51  40 CALM      30.21F
HILLSDALE*     CLOUDY    77  50  38 W3        30.22F
HOLLAND        SUNNY     78  58  49 VRB7      30.21F
GRAND RAPIDS   MOSUNNY   80  51  36 S7        30.20F
KALAMAZOO      SUNNY     80  48  32 S8        30.21F
STURGIS*       SUNNY     76  56  49 E7        30.21S
THREE RIVERS*  FAIR      78  50  38 E3        30.22S

$$
OHZ001>008-015>018-024>025-252200-
NORTHWEST OHIO

CITY           SKY/WX    TMP DP  RH WIND       PRES   REMARKS
WAUSEON*       FAIR      77  59  53 VRB6      30.22S
DEFIANCE       SUNNY    N/A N/A N/A NE7       30.21F
FINDLAY        SUNNY     78  58  49 E12       30.20F
TOLEDO EXPRESS SUNNY     78  55  44 E8        30.21F
TOLEDO METCALF SUNNY     77  58  51 VRB6      30.22F
LIMA           SUNNY     75  59  57 NW3       30.20F

$$
AND FOR LAKE MICHIGAN COASTAL AND OPEN LAKE BUOY OBSERVATIONS

STATION/POSITION TEMP    WIND        PRES    VSBY  WAVE
                 AIR SEA DIR/SP/G                  HT/PER
                 (F)     (DEG/KT/KT) (MB)    (MI)  (FT/S)
CALUMET HARBOR    75      50/  8/ 12 1021.6F
MICHIGAN CITY     77     100/  7/  8   N/A
BURNS HARBOR      78     150/  6/ 13 1022.7S
SAINT JOSEPH      74     360/  4/  6 1022.7
SOUTH LAKE BUOY   71 71  160/  6/  6 1022.7F         1/ 4
4 MI NW BRIDGMAN  73 76   40/  6/  8 1022.3          1
MICHIGAN CITY     76 75  140/  2/  4   N/A           1/ 4

$$
&&




USA.gov is the U.S. government's official web portal to all federal, state and local government web resources and services.